This is the latest recevied weather packets stored in our database for station/object 9D9-WX. If no packets are shown the sender has not sent any weather packets the latest 10 day(s).
| Time | Temp. | Humidity | Pressure | Rain* | Wind** | Luminosity | Snow |
|---|---|---|---|---|---|---|---|
| 1777414508 | 13.33° C | 70% | 983.9 hPa | 0 mm | - | - | - |
| 1777413630 | 13.33° C | 70% | 983.9 hPa | 0 mm | - | - | - |
| 1777412708 | 13.33° C | 75% | 983.6 hPa | 0 mm | - | - | - |
| 1777411821 | 12.78° C | 75% | 983.6 hPa | 0 mm | - | - | - |
| 1777410908 | 12.78° C | 75% | 983.5 hPa | 0 mm | - | - | - |
| 1777410031 | 12.78° C | 75% | 983.5 hPa | 0 mm | - | - | - |
| 1777409108 | 12.78° C | 78% | 983.5 hPa | 0 mm | - | - | - |
| 1777408226 | 12.78° C | 80% | 983.2 hPa | 0 mm | - | - | - |
| 1777407308 | 12.78° C | 80% | 983.2 hPa | 0 mm | - | - | - |
| 1777406430 | 12.78° C | 81% | 983.2 hPa | 0 mm | - | - | - |
| 1777405508 | 12.78° C | 83% | 982.5 hPa | 0 mm | - | - | - |
| 1777404622 | 12.78° C | 83% | 982.5 hPa | 0 mm | - | - | - |
| 1777403709 | 11.67° C | 83% | 982.5 hPa | 0 mm | - | - | - |
| 1777402828 | 12.22° C | 83% | 982.5 hPa | 0 mm | - | - | - |
| 1777401908 | 11.67° C | 86% | 982.7 hPa | 0 mm | - | - | - |
| 1777401022 | 11.11° C | 86% | 982.5 hPa | 0 mm | - | - | - |
| 1777400108 | 11.11° C | 86% | 982.5 hPa | 0 mm | - | - | - |
| 1777399231 | 10.56° C | 86% | 982.5 hPa | 0 mm | - | - | - |
| 1777398308 | 10.56° C | 83% | 982.4 hPa | 0 mm | - | - | - |
| 1777397425 | 10° C | 87% | 982.3 hPa | 0 mm | - | - | - |
| 1777396508 | 10° C | 87% | 982.3 hPa | 0 mm | - | - | - |
| 1777395627 | 10° C | 87% | 982.3 hPa | 0 mm | - | - | - |
| 1777394708 | 10.56° C | 83% | 982 hPa | 0 mm | - | - | - |
| 1777393822 | 10.56° C | 86% | 981.4 hPa | 0 mm | - | - | - |
| 1777392909 | 10.56° C | 86% | 981.4 hPa | 0 mm | - | - | - |
* Rain latest hour (hover to see other rain measurements)
** Current wind speed in m/s (hover to see current wind gust speed)